McConnell AFB, KS

11:14 AM CST on December 11, 2019 (GMT -0600)
McConnell Air Force Base

Weather History for KIAB - September, 2019

Change the Weather History Date:

Monday, September 16, 2019

  Actual Average Record
Temperature  
Mean Temperature 80 °F -  
Max Temperature 91 °F 79 °F 95 °F (1997)
Min Temperature 70 °F 59 °F 48 °F (2011)
Cooling Degree Days 16    
Growing Degree Days 30 (Base 50)    
Moisture  
Dew Point 65 °F    
Average Humidity 63    
Maximum Humidity 83    
Minimum Humidity 38    
Precipitation  
Precipitation 0.00 in - - ()
Sea Level Pressure  
Sea Level Pressure 30.02 in    
Wind  
Wind Speed 9 mph (SE)    
Max Wind Speed 18 mph    
Max Gust Speed -    
Visibility 10 miles    
Events      
Averages and records for this station are not official NWS values.
T = Trace of Precipitation, MM = Missing Value Source: NWS Daily Summary

Daily Weather History Graph

Daily Weather History Graph

Search for Another Location

Airport or City:

Astronomy

Sep. 16, 2019 Rise Set
Actual Time 7:11 AM CDT 7:35 PM CDT
Civil Twilight 6:45 AM CDT 8:01 PM CDT
Nautical Twilight 6:14 AM CDT 8:32 PM CDT
Astronomical Twilight 5:43 AM CDT 9:03 PM CDT
Moon 9:13 PM CDT (9/16) 9:18 AM CDT (9/16)
Length of Visible Light 13h 16m
Length of Day
12h 23m
Waning Gibbous, 94% of the Moon is Illuminated
Sep 16
Waning Gibbous
Sep 21
Last Quarter
Sep 28
New
Oct 5
First Quarter
Oct 13
Full

Hourly Weather History & Observations

Time (CDT) Temp. Heat Index Dew Point Humidity Pressure Visibility Wind Dir Wind Speed Gust Speed Precip Events Conditions
12:56 AM 73.6 °F - 64.8 °F 74% 30.03 in 10.0 mi ESE 6.9 mph - N/A   Clear
1:56 AM 73.2 °F - 64.8 °F 75% 30.04 in 10.0 mi SE 6.9 mph - N/A   Clear
2:56 AM 72.7 °F - 64.6 °F 76% 30.04 in 10.0 mi SE 6.9 mph - N/A   Clear
3:56 AM 71.4 °F - 64.6 °F 79% 30.04 in 10.0 mi ESE 6.9 mph - N/A   Clear
4:56 AM 70.7 °F - 64.6 °F 81% 30.04 in 10.0 mi ESE 4.6 mph - N/A   Clear
5:56 AM 70.2 °F - 64.8 °F 83% 30.05 in 10.0 mi ESE 5.8 mph - N/A   Clear
6:56 AM 70.3 °F - 64.2 °F 81% 30.06 in 10.0 mi ESE 5.8 mph - N/A   Clear
7:56 AM 70.9 °F - 64.8 °F 81% 30.07 in 10.0 mi ESE 5.8 mph - N/A   Clear
8:56 AM 74.7 °F - 66.2 °F 75% 30.08 in 10.0 mi SE 5.8 mph - N/A   Clear
9:56 AM 79.7 °F - 66.0 °F 63% 30.08 in 10.0 mi SSE 11.5 mph - N/A   Clear
10:56 AM 84.2 °F 86.6 °F 66.2 °F 55% 30.08 in 10.0 mi South 13.8 mph - N/A   Clear
11:56 AM 86.7 °F 89.0 °F 65.8 °F 50% 30.07 in 10.0 mi SSE 15.0 mph - N/A   Clear
12:56 PM 88.3 °F 90.2 °F 64.9 °F 46% 30.05 in 10.0 mi SSE 15.0 mph - N/A   Clear
1:56 PM 90.0 °F 91.0 °F 63.7 °F 41% 30.02 in 10.0 mi South 11.5 mph - N/A   Clear
2:56 PM 91.4 °F 92.1 °F 62.2 °F 38% 30.00 in 10.0 mi SE 18.4 mph - N/A   Clear
3:56 PM 90.7 °F 91.7 °F 63.0 °F 40% 29.98 in 10.0 mi ESE 16.1 mph - N/A   Clear
4:56 PM 89.6 °F 90.4 °F 63.3 °F 41% 29.97 in 10.0 mi ESE 17.3 mph - N/A   Clear
5:56 PM 89.1 °F 91.0 °F 65.5 °F 45% 29.97 in 10.0 mi ESE 16.1 mph - N/A   Clear
6:56 PM 86.0 °F 87.9 °F 65.7 °F 50% 29.97 in 10.0 mi ESE 13.8 mph - N/A   Clear
7:56 PM 82.0 °F 84.5 °F 66.7 °F 60% 29.96 in 10.0 mi ESE 11.5 mph - N/A   Clear
8:56 PM 79.9 °F - 66.6 °F 64% 29.98 in 10.0 mi ESE 10.4 mph - N/A   Clear
9:56 PM 78.6 °F - 66.2 °F 66% 29.99 in 10.0 mi ESE 9.2 mph - N/A   Clear
10:56 PM 77.7 °F - 66.2 °F 68% 29.99 in 10.0 mi ESE 9.2 mph - N/A   Clear
11:56 PM 76.5 °F - 65.8 °F 70% 29.99 in 10.0 mi ESE 11.5 mph - N/A   Clear